Location: Boussac
(44.2782°N, 2.3665°E)
Time: 16:19:33
(UTC+00:00)

Cosmos 1455 Rocket - Pass Details

Date: 15 May 2026
Orbit: 597 x 623 km, 82.5° (Epoch: 10 June)

Event Time Altitude Azimuth Distance (km) Brightness Sun altitude
Rises 19:42:29 0° 181° (S) 2,884 6.2 -5.7°
Reaches altitude 10° 19:44:42 10° 179° (S) 1,981 5.3 -6.0°
Maximum altitude 19:49:04 70° 96° (E) 662 3.0 -6.7°
Drops below altitude 10° 19:53:26 10° 13° (NNE) 1,984 6.0 -7.3°
Sets 19:55:40 0° 11° (NNE) 2,889 6.9 -7.6°
